Location: Freistadt
(48.5112°N, 14.5013°E)
Time: 00:17:10
(UTC+01:00)

AAUSAT CUBESAT 2 - Visible Passes

Search period start: 23 March 2023 00:00
Search period end: 02 April 2023 01:00
Orbit: 558 x 564 km, 97.6° (Epoch: 22 March)

Date Brightness Start Highest point End Pass type
(mag) Time Alt. Az. Time Alt. Az. Time Alt. Az.
23 Mar ? 04:42:52 10° NNE 04:46:57 85° ESE 04:50:58 10° SSW visible
24 Mar ? 04:42:02 10° NNE 04:46:06 84° ESE 04:50:08 10° SSW visible
25 Mar ? 04:41:10 10° NNE 04:45:14 82° ESE 04:49:15 10° SSW visible
26 Mar ? 05:40:16 10° NNE 05:44:19 80° ESE 05:48:21 10° S visible
27 Mar ? 05:39:20 10° NNE 05:43:24 79° ESE 05:47:24 10° S visible
28 Mar ? 05:38:23 10° NNE 05:42:26 77° E 05:46:27 10° S visible
29 Mar ? 05:37:23 10° NNE 05:41:27 75° ESE 05:45:27 10° S visible
30 Mar ? 05:36:23 10° NNE 05:40:26 73° ESE 05:44:26 10° S visible
31 Mar ? 05:35:20 10° NNE 05:39:23 71° ESE 05:43:23 10° S visible
01 Apr ? 05:34:16 10° NNE 05:38:18 70° ESE 05:42:18 10° S visible
